WP3XM Weather Reports


Display with metric or nautical units.
time (UTC)temp
F
wind
direction
speed
MPH
gust
MPH
rain 1hr
in
rain 24hr
in
rain mn
in
humidity
%
barometer
mb
20260505041359 77 279 0.0 1.0 0.00 0.00 0.00 93 1018.2
20260505040856 77 279 0.0 1.0 0.00 0.00 0.00 93 1018.4
20260505040353 77 285 1.0 1.0 0.00 0.00 0.00 93 1018.3
20260505035850 77 246 0.0 0.0 0.00 0.09 0.09 94 1018.4
20260505035345 77 241 0.0 0.0 0.00 0.09 0.09 94 1018.6
20260505034843 77 242 0.0 0.0 0.00 0.09 0.09 94 1018.6
20260505034339 77 238 1.0 1.0 0.00 0.09 0.09 94 1018.6
20260505033837 76 243 0.0 1.0 0.00 0.09 0.09 94 1018.7
20260505033333 76 294 0.0 0.0 0.00 0.09 0.09 94 1018.7
20260505032832 76 295 1.0 1.0 0.00 0.09 0.09 94 1018.5
20260505032328 76 288 1.0 1.0 0.00 0.09 0.09 94 1018.8
20260505031825 76 321 1.0 2.0 0.00 0.09 0.09 93 1018.7
20260505031321 76 309 1.0 2.0 0.00 0.09 0.09 93 1018.8
20260505030819 77 322 1.0 1.0 0.00 0.09 0.09 93 1018.6
20260505030315 77 283 1.0 1.0 0.00 0.09 0.09 93 1018.6
20260505025810 77 288 1.0 1.0 0.00 0.09 0.09 93 1018.8
20260505025308 77 236 0.0 1.0 0.00 0.09 0.09 93 1018.6
20260505024807 77 234 1.0 2.0 0.00 0.09 0.09 92 1018.7
20260505024304 77 266 0.0 2.0 0.00 0.09 0.09 92 1018.6
20260505023801 77 275 0.0 0.0 0.00 0.09 0.09 92 1018.7
20260505023258 77 296 0.0 0.0 0.00 0.09 0.09 92 1018.6
20260505022755 77 295 0.0 0.0 0.00 0.09 0.09 91 1018.4
20260505022252 78 271 0.0 1.0 0.00 0.09 0.09 91 1018.5
20260505021749 78 264 0.0 1.0 0.00 0.09 0.09 92 1018.4
20260505021246 77 258 0.0 2.0 0.00 0.09 0.09 92 1018.6
20260505020741 77 239 0.0 1.0 0.00 0.09 0.09 91 1018.6
20260505020237 77 232 2.0 3.0 0.00 0.09 0.09 91 1018.6
20260505015734 78 293 0.0 0.0 0.00 0.09 0.09 90 1018.6
20260505015231 78 284 0.0 2.0 0.00 0.09 0.09 89 1018.4
20260505014728 78 254 1.0 2.0 0.00 0.09 0.09 89 1018.4
20260505014226 78 249 0.0 0.0 0.00 0.09 0.09 89 1018.3
20260505013722 78 252 0.0 0.0 0.00 0.09 0.09 88 1018.4
20260505013219 79 287 0.0 0.0 0.00 0.09 0.09 87 1018.3
20260505012717 79 267 0.0 1.0 0.00 0.09 0.09 86 1018.2
20260505012214 79 86 1.0 1.0 0.00 0.09 0.09 87 1018.2
20260505011710 79 97 1.0 3.0 0.00 0.09 0.09 87 1018.1
20260505011208 79 65 2.0 2.0 0.00 0.09 0.09 87 1017.9
20260505010703 79 52 0.0 1.0 0.00 0.09 0.09 87 1018.0
20260505010200 79 105 1.0 3.0 0.00 0.09 0.09 87 1017.8
20260505005656 79 86 1.0 2.0 0.00 0.09 0.09 86 1017.8
20260505005153 80 146 0.0 0.0 0.00 0.09 0.09 86 1017.7
20260505004650 80 87 2.0 2.0 0.00 0.09 0.09 86 1017.9
20260505004146 80 90 2.0 3.0 0.00 0.09 0.09 85 1017.7
20260505003644 80 101 2.0 2.0 0.00 0.09 0.09 85 1017.6
20260505003141 80 194 0.0 0.0 0.00 0.09 0.09 85 1017.7
20260505002637 80 91 0.0 1.0 0.00 0.09 0.09 85 1017.9
20260505002136 80 157 2.0 2.0 0.00 0.09 0.09 85 1017.8
20260505001632 80 78 1.0 2.0 0.00 0.09 0.09 85 1017.7
20260505001130 80 149 0.0 0.0 0.00 0.09 0.09 85 1017.8
20260505000627 80 190 1.0 2.0 0.00 0.09 0.09 85 1017.9
20260505000125 80 170 1.0 2.0 0.00 0.09 0.09 84 1017.6
20260504235621 80 156 1.0 1.0 0.00 0.09 0.09 84 1017.7
20260504235117 81 162 2.0 2.0 0.00 0.09 0.09 82 1017.5
20260504234615 81 115 1.0 2.0 0.00 0.09 0.09 82 1017.5
20260504234112 81 175 0.0 1.0 0.00 0.09 0.09 81 1017.4
20260504233607 82 227 2.0 3.0 0.00 0.09 0.09 80 1017.2
20260504233104 82 131 2.0 3.0 0.00 0.09 0.09 80 1017.3
20260504232601 82 134 3.0 3.0 0.00 0.09 0.09 80 1017.4
20260504232059 82 107 1.0 2.0 0.00 0.09 0.09 80 1017.5
20260504231555 81 158 1.0 3.0 0.00 0.09 0.09 82 1017.4
20260504231051 80 108 2.0 2.0 0.00 0.09 0.09 84 1017.2
20260504230547 81 174 2.0 4.0 0.00 0.09 0.09 82 1017.3
20260504230046 81 129 2.0 2.0 0.00 0.09 0.09 83 1017.3
20260504225543 81 117 3.0 4.0 0.00 0.09 0.09 83 1017.2
20260504225040 81 113 3.0 3.0 0.00 0.09 0.09 83 1017.1
20260504224537 81 131 3.0 4.0 0.00 0.09 0.09 82 1017.3
20260504224034 81 182 1.0 3.0 0.00 0.09 0.09 83 1017.0
20260504223531 81 182 3.0 4.0 0.00 0.09 0.09 82 1016.8
20260504223027 81 168 1.0 4.0 0.00 0.09 0.09 82 1016.9
20260504222523 81 178 4.0 6.0 0.00 0.09 0.09 81 1017.0
20260504222021 81 103 4.0 4.0 0.00 0.09 0.09 81 1016.8
20260504221518 81 129 2.0 7.0 0.00 0.09 0.09 81 1016.7
20260504221015 82 145 5.0 8.0 0.00 0.09 0.09 79 1016.6
20260504220511 82 126 3.0 8.0 0.00 0.09 0.09 79 1016.7
20260504220009 82 154 7.0 9.0 0.00 0.09 0.09 77 1016.7
20260504215505 82 72 5.0 9.0 0.00 0.09 0.09 76 1016.6
20260504215003 83 148 5.0 10.0 0.00 0.09 0.09 75 1016.4
20260504214458 83 142 3.0 9.0 0.00 0.09 0.09 75 1016.2
20260504213955 83 120 6.0 8.0 0.00 0.09 0.09 75 1016.0
20260504213450 82 68 5.0 7.0 0.00 0.09 0.09 76 1016.3
20260504212948 82 105 6.0 9.0 0.00 0.09 0.09 76 1016.4
20260504212444 83 106 6.0 10.0 0.00 0.09 0.09 76 1016.1
20260504211942 83 120 5.0 9.0 0.00 0.09 0.09 77 1016.1
20260504211438 83 110 5.0 9.0 0.00 0.09 0.09 78 1016.2
20260504210936 82 105 5.0 7.0 0.00 0.09 0.09 79 1016.1
20260504210432 82 94 6.0 8.0 0.00 0.09 0.09 81 1016.1
20260504205929 82 159 6.0 8.0 0.00 0.09 0.09 81 1016.1
20260504205427 81 151 4.0 10.0 0.00 0.09 0.09 82 1015.9
20260504204925 81 67 6.0 8.0 0.00 0.09 0.09 83 1016.1
20260504204423 80 142 5.0 9.0 0.00 0.09 0.09 84 1016.1
20260504203922 80 104 5.0 9.0 0.00 0.09 0.09 84 1016.1
20260504203419 80 186 5.0 9.0 0.00 0.09 0.09 84 1016.2
20260504202915 82 130 8.0 13.0 0.00 0.09 0.09 81 1016.2
20260504202412 82 149 5.0 11.0 0.00 0.09 0.09 80 1016.2
20260504201909 82 57 6.0 8.0 0.00 0.09 0.09 79 1016.3
20260504201406 82 157 2.0 9.0 0.00 0.09 0.09 79 1016.3
20260504200903 82 148 4.0 9.0 0.00 0.09 0.09 80 1016.2
20260504200400 82 120 5.0 10.0 0.00 0.09 0.09 80 1016.4
20260504195856 82 133 8.0 10.0 0.00 0.09 0.09 81 1016.3
20260504195352 82 125 6.0 10.0 0.00 0.09 0.09 83 1016.2
20260504194849 82 144 7.0 9.0 0.00 0.09 0.09 82 1016.3
20260504194345 83 174 10.0 13.0 0.00 0.09 0.09 78 1016.3
20260504193841 82 129 5.0 7.0 0.00 0.09 0.09 81 1016.3
20260504193338 82 158 7.0 11.0 0.00 0.09 0.09 80 1016.4
20260504192837 83 148 6.0 9.0 0.00 0.09 0.09 80 1016.4
20260504192335 84 130 5.0 9.0 0.00 0.09 0.09 79 1016.2
20260504191833 84 123 6.0 10.0 0.00 0.09 0.09 79 1016.4
20260504191330 82 136 7.0 8.0 0.00 0.09 0.09 81 1016.3
20260504190825 83 151 7.0 13.0 0.00 0.09 0.09 81 1016.7
20260504190322 81 156 6.0 13.0 0.00 0.09 0.09 85 1016.6
20260504185818 82 138 3.0 13.0 0.00 0.09 0.09 85 1016.6
20260504185315 81 150 2.0 8.0 0.07 0.09 0.09 86 1016.5
20260504184811 82 94 9.0 13.0 0.07 0.09 0.09 83 1016.6
20260504184307 82 122 7.0 11.0 0.00 0.08 0.08 83 1016.5
20260504183803 84 113 6.0 15.0 0.00 0.08 0.08 78 1016.5
20260504183300 82 62 6.0 14.0 0.00 0.08 0.08 81 1016.8
20260504182758 82 121 8.0 11.0 0.00 0.08 0.08 82 1016.8
20260504182255 81 143 7.0 10.0 0.00 0.08 0.08 84 1016.7
20260504181753 82 195 5.0 10.0 0.00 0.08 0.08 84 1017.1
20260504181250 82 122 9.0 10.0 0.00 0.08 0.08 83 1017.0
20260504180749 82 132 12.0 15.0 0.00 0.08 0.08 80 1017.0
20260504180247 83 140 6.0 11.0 0.00 0.08 0.08 81 1016.9
20260504175745 82 99 10.0 14.0 0.00 0.08 0.08 82 1017.0
20260504175241 81 131 7.0 11.0 0.00 0.08 0.08 85 1017.1
20260504174739 81 107 8.0 11.0 0.00 0.08 0.08 87 1017.2
20260504174237 80 118 10.0 11.0 0.05 0.08 0.08 89 1017.3
20260504173733 80 119 7.0 10.0 0.31 0.08 0.08 88 1017.4
20260504173230 84 124 15.0 19.0 0.14 0.05 0.05 74 1017.5
20260504172727 85 64 5.0 13.0 0.00 0.03 0.03 73 1017.4
20260504172223 85 104 7.0 9.0 0.00 0.03 0.03 73 1017.3
20260504171720 85 152 6.0 11.0 0.00 0.03 0.03 71 1017.3
20260504171217 85 134 7.0 11.0 0.00 0.03 0.03 74 1017.5
20260504170714 84 91 7.0 11.0 0.00 0.03 0.03 74 1017.5
20260504170211 85 124 9.0 13.0 0.00 0.03 0.03 73 1017.5
20260504160129 84 71 3.0 13.0 0.00 0.03 0.03 73 1018.3
20260504151057 85 102 11.0 16.0 0.00 0.03 0.03 67 1018.4
20260504150554 85 103 11.0 16.0 0.00 0.03 0.03 67 1018.5
20260504141020 83 74 8.0 19.0 0.00 0.03 0.03 71 1018.4
20260504140516 83 86 11.0 16.0 0.00 0.03 0.03 74 1018.4
20260504130441 81 102 7.0 10.0 0.00 0.01 0.01 84 1018.6
20260504110328 77 80 5.0 6.0 0.00 0.00 0.00 88 1018.2
20260504100245 76 178 0.0 1.0 0.00 0.00 0.00 88 1017.7
20260504081639 77 109 1.0 4.0 0.00 0.00 0.00 88 1017.1
20260504081135 77 85 0.0 3.0 0.00 0.00 0.00 88 1017.1
20260504080632 77 58 2.0 4.0 0.00 0.00 0.00 88 1017.0
20260504080128 77 88 4.0 6.0 0.00 0.00 0.00 87 1017.1
20260504050445 79 71 3.0 6.0 0.00 0.00 0.00 84 1018.0
20260504045942 79 75 1.0 4.0 0.00 0.00 0.00 84 1018.0
20260504045437 79 83 2.0 3.0 0.00 0.00 0.00 83 1018.0
20260504044933 79 90 4.0 6.0 0.00 0.00 0.00 83 1018.1
20260504044431 79 92 1.0 2.0 0.00 0.00 0.00 83 1018.2